www.pogodaiklimat.ru

ПОГОДА в Шангнаке, AK

  • Прогноз погоды в Шангнаке
  • Монитор погоды в Шангнаке
  • Климат в Шангнаке

АРХИВ ПОГОДЫ в Шангнаке

Время (UTC), дата Ветер
(напр.,м/с)
 
Видим.   Явления Облачность Т
(С)
Тd
(С)
f
(%)
Тe
(С)
Тes
(С)
Комфортность

P
(гПа)

Po
(гПа)
Тmin
(С)
Tmax
(С)
R
(мм)
SD
(см)
15:10 24.05 З  2 км  неопределенные осадки, дымка  10/10 60 м  +1.0  +1.0  100  -4  -4      1014.3         
15:13 24.05 З  10 км  слабый дождь, дымка  10/10 60 м  +1.0  +1.0  100  -4  -4      1014.3         
15:22 24.05 З  16 км    10/10 120 м  +1.0  +1.0  100  -4  -4      1014.3         
15:56 24.05 З  16 км    10/10 120 м  +1.7  +1.1  96  -3  -3    1022.6  1014.6         
16:56 24.05 З  16 км    10/10 120 м  +1.7  +1.1  96  -3  -3    1023.2  1015.3  +0.6  +1.7     
17:04 24.05 З  16 км    10/10 180 м  +2.0  +2.0  100  -3  -3      1015.3         
17:56 24.05 СЗ  16 км    10/10 240 м  +3.3  +1.7  89  -1  -1    1023.2  1015.3         
18:27 24.05 З  16 км    10/10 300 м  +3.0  +2.0  93  -1  -1      1015.3         
18:56 24.05 СЗ  16 км    10/10 300 м  +3.9  +1.1  82  -1  -1    1023.4  1015.3         
19:56 24.05 СЗ  16 км    10/10 300 м  +3.9  +1.1  82  -1  -1    1023.7  1015.7         
20:56 24.05 нст  16 км    8/8 360 м  +5.0  +1.1  76  +2  +4    1023.6  1015.7         
21:10 24.05 СЗ  16 км    5/5 420 м  +6.0  +1.0  70  +2  +5      1015.7         
21:56 24.05 СЗ  16 км    ясно  +7.2  +1.7  68  +4  +11    1023.5  1015.7         
22:56 24.05 З  16 км    ясно  +9.4  +1.7  59  +7  +15    1023.2  1015.3  +1.7  +9.4     
23:56 24.05 З  16 км    ясно  +10.0  +1.1  54  +8  +14    1022.9  1015.0         
00:56 25.05 СЗ  16 км    ясно  +11.1  +0.6  48  +9  +13    1022.8  1015.0         
01:56 25.05 СЗ  16 км    ясно  +11.7  0.0  44  +10  +14    1022.6  1014.6         
02:56 25.05 З  16 км    ясно  +12.2  0.0  43  +11  +15    1022.1  1014.3         
03:56 25.05 СЗ  16 км    ясно  +12.2  +1.1  47  +11  +13    1021.8  1014.0         
04:56 25.05 З  16 км    ясно  +11.7  +1.1  48  +11  +13    1021.7  1014.0  +8.9  +12.2     
05:56 25.05 З  16 км    ясно  +11.1  +1.7  52  +10  +11    1021.6  1013.6         
06:56 25.05 ЮЗ  16 км    ясно  +9.4  +0.6  54  +7  +7    1021.7  1014.0         
07:56 25.05   16 км    ясно  +7.2  +1.1  65  +7  +7    1021.6  1013.6         
08:56 25.05 СЗ  16 км    ясно  +6.1  +1.7  73  +3  +3    1021.5  1013.6         
09:56 25.05 З  16 км    ясно  +6.1  +1.7  73  +3  +3    1021.3  1013.6         
10:56 25.05 З  16 км    ясно  +5.0  +1.7  79  +2  +2    1020.8  1013.0  +4.4  +11.7     
11:56 25.05 ЮЗ  16 км    ясно  +3.3  +2.2  92  -1  -1    1020.5  1012.6         
12:56 25.05 СВ  8 км  дымка  ясно  +1.1  +0.6  96  -2  -2    1020.4  1012.6         
13:56 25.05   16 км    ясно  +4.4  +2.2  86  +3  +4    1019.8  1012.0         
14:56 25.05   16 км    ясно  +6.1  +2.8  79  +5  +6    1019.3  1011.6         
15:56 25.05   16 км    ясно  +7.8  +3.3  73  +7  +10    1018.8  1010.9         
16:56 25.05   16 км    ясно  +9.4  +3.3  66  +9  +13    1018.6  1010.6  +1.1  +10.0     
17:56 25.05 нст  16 км    ясно  +11.1  +2.8  57  +11  +16    1017.9  1010.3         
18:56 25.05 В  16 км    ясно  +13.3  +1.7  45  +13  +21    1017.2  1009.3         
19:56 25.05   16 км    ясно  +14.4  -2.2  32  +14  +26  опасность
простуды 
1016.1  1008.3         
20:56 25.05 С  16 км    ясно  +15.6  -3.9  26  +16  +27    1015.0  1007.2         
21:56 25.05 СВ  16 км    ясно  +16.7  -1.7  28  +17  +25    1014.0  1006.2         
22:56 25.05 ЮВ  16 км    ясно  +17.8  -1.7  26  +18  +28    1013.1  1005.2  +9.4  +17.8     
23:56 25.05 Ю  16 км    ясно  +18.3  -4.4  21  +19  +28    1012.2  1004.6         
00:56 26.05   16 км    ясно  +18.9  -6.1  18  +19  +30    1011.3  1003.5         
01:56 26.05 нст  16 км    ясно  +19.4  -5.6  18  +20  +27    1010.7  1002.9         
02:56 26.05   16 км    ясно  +19.4  -4.4  20  +19  +26    1009.5  1001.9         
03:56 26.05 СЗ  16 км    ясно  +18.9  -2.8  23  +19  +22    1009.1  1001.5         
04:56 26.05 СЗ  16 км    ясно  +16.7  -0.6  31  +16  +18    1008.7  1001.2  +16.7  +20.0     
05:56 26.05 СВ  16 км    ясно  +16.1  -3.9  25  +16  +17    1008.4  1000.9         
06:56 26.05 В  16 км    ясно  +15.0  -2.8  29  +15  +15    1007.9  1000.2         
07:56 26.05 В  16 км    ясно  +13.3  0.0  40  +12  +12    1007.8  1000.2         
08:56 26.05 В  16 км    10/0 2400 м
[средняя] 
+14.4  -1.1  34  +13  +13    1007.8  1000.2         

 

Местоположение метеостанции Shungnak Airport: широта 66.8881 долгота -157.1624 высота над уровнем моря 60 м.

В архиве по умолчанию представлена погода в Шангнаке за последние 1-2 суток. Обновление информации о фактической погоде в базе происходит ежечасно! Архивные данные за месяц целиком и за предыдущие месяцы Вы можете получить, выбрав интересующий диапазон дат из раскрывающегося списка и нажав кнопку "Ввод!".

Внимание! Архив погоды МЕТАР в базе сайта хранится не более 60 дней. Нет смысла пытаться выбрать более раннюю дату.

Внимание! Время в таблицах - всемирное. Для получения местного времени необходимо прибавить поправку, которая в Шангнаке равна -9 ч.

Ветер - указаны скорость ветра в м/с и направление, откуда дует ветер: С - северный, СВ - северо-восточный, В - восточный, ЮВ - юго-восточный, Ю - южный, ЮЗ - юго-западный, З - западный, СЗ - северо-западный.
Видимость - горизонтальная дальность видимости в метрах или километрах. При видимости от 1 до 10 км при отсутствии осадков обычно наблюдается дымка, при ухудшении видимости до 1 км и менее - туман. В сухую погоду видимость может ухудшаться дымом, пылью или мглою.
Атмосферные явления - указаны явления, наблюдавшиеся в указанный момент времени.
Облачность - указаны через наклонную черту верхняя и нижняя облачность в баллах и высота нижней границы облаков в метрах. Внимание: облачность, как и прочие метеорологические величины в США измеряются автоматическими метеостанциями. Указанные значения в баллах носят условный характер и показывают процент времени, в течение которого, в среднем, лазерный луч высотомера отражался от облаков обратно.
T - Температура воздуха - температура, измеренная на высоте 2 м над землей.
Td - Температура точки росы - температура, при понижении до которой содержащийся в воздухе водяной пар достигнет насыщения.
f - Относительная влажность воздуха - влажноcть воздуха, измеренная на высоте 2 м над землей.
Te - Эффективная температура - температура, которую ощущает одетый по сезону человек в тени. Характеристика душности погоды. При расчете учитывается влияние влажности воздуха и скорости ветра на теплоощущения человека.
Tes - Эффективная температура на солнце - температура, которую ощущает человек, с поправкой на солнечный нагрев. Характеристика знойности погоды. Зависит от высоты солнца над горизонтом, облачности и скорости ветра. Ночью, в пасмурную погоду, а также при ветре 12 м/с и более поправка равна нулю.
P - Атмосферное давление - приведенное к уровню моря атмосферное давление.
Po - Атмосферное давление - измеренное на уровне метеостанции атмосферное давление.
Tmin - Минимальная температура - минимум температуры воздуха на высоте 2 м над землей.
Tmax - Максимальная температура - максимум температуры воздуха на высоте 2 м над землей.
R - Количество осадков - Количество выпавших осадков за 3 или 6 часов, мм.
SD - Снежный покров - Высота снежного покрова, см.